{"data":{"norad_id":54116,"intl_designator":"2022-138D","name":"ONEWEB-0497","alt_names":[],"object_type":"PAYLOAD","status":"ACTIVE","operator":null,"country":"UK","launch_date":"2022-10-22","launch_site_code":"SRILR","launch_vehicle":null,"mission":null,"orbit_class":"UNKNOWN","rcs_meters":null,"size_class":null,"mass_kg":null,"dimensions":null,"purposes":["comms"],"wikipedia_slug":null,"has_3d_model":false,"image_url":null,"decayed_at":null,"tle_current":{"epoch":"2026-09-19T18:28:24.978720Z","epoch_age_seconds":88939,"freshness":"FRESH","line1":"1 54116U 22138D   26262.76973355  .00000029  00000+0  39838-4 0  9991","line2":"2 54116  87.9113 286.1224 0001925  89.3518 270.7835 13.19726933189288","mean_motion":13.19726933,"eccentricity":0.0001925,"inclination_deg":87.9113,"raan_deg":286.1224,"arg_perigee_deg":89.3518,"mean_anomaly_deg":270.7835,"bstar":3.9838e-5,"rev_number":18928,"period_min":109.11348128106,"perigee_km":1184.3071153258,"apogee_km":1187.2192168898,"semimajor_km":7563.9001661078,"source":"CELESTRAK","updated_at":"2026-09-20T09:00:44.715494Z"}}}